Location: *
(50.2903°S, 172.5375°W)
Time: 12:48:17
(UTC+00:00)

Cosmos 1626 - Pass Details

Date: 17 November 2019
Orbit: 491 x 497 km, 82.5° (Epoch: 13 December)

Event Time Altitude Azimuth Distance (km) Brightness Sun altitude
Rises 12:37:51 0° 190° (S) 2,631 6.8 -18.4°
Reaches altitude 10° 12:39:59 10° 188° (S) 1,739 5.8 -18.2°
Maximum altitude 12:43:48 81° 101° (E) 520 2.1 -18.0°
Enters shadow 12:45:10 38° 17° (NNE) 786 2.7 -17.9°
